Location: ?????
(32.7281°N, 34.9563°E)
Time: 18:22:04
(UTC+00:00)

CZ-4B R/B - Pass Details

Date: 29 October 2020
Orbit: 388 x 461 km, 97.6° (Epoch: 30 November)

Event Time Altitude Azimuth Distance (km) Brightness Sun altitude
Rises 15:37:20 0° 359° (N) 2,354 5.0 -10.2°
Reaches altitude 10° 15:39:29 10° 349° (NNW) 1,475 4.0 -10.6°
Maximum altitude 15:42:16 29° 286° (WNW) 765 3.3 -11.2°
Drops below altitude 10° 15:44:59 10° 224° (SW) 1,437 4.8 -11.8°
Sets 15:47:03 0° 212° (SSW) 2,280 5.6 -12.2°
